Погода в Болышеве

Россия / Смоленская область     55°34′33″N   33°35′30″E
темп.,
°C
ветер,
м/с
пор.,
м/с
влажн.,
%
обл.,
%
осадки,
мм/ч
давл.,
гПа
погр.,
м
11 апреля, вс
вс1100:00+4ююз514725 0.0 1023341
03:00+4ююз397596 0.0 1024257
06:00+2ю36866 0.0 102593
09:00+7ююз36685 0.0 1027284
12:00+13ююз57525 0.0 1027808
15:00+15ююз56465 0.0 10271471
18:00+14ююз36531 0.0 1028297
21:00+9ю34715 0.0 103055
12 апреля, пн
пн1200:00+7ююв33751 0.0 103141
03:00+5ююв34790 0.0 103247
06:00+4юв33810 0.0 103243
09:00+9юв48630 0.0 1031357
12:00+13вюв584498 0.0 10301029
15:00+14вюв6837100 0.0 10271197
18:00+10юв5867100 0.0 1026697
21:00+9юв41084100 0.3 1026475
13 апреля, вт
вт1300:00+8юв3892100 0.0 1025238
03:00+7юв2295100 0.0 102427
06:00+7юв1195100 0.0 102411
09:00+11юв1282100 0.0 1023153
12:00+15юв3364100 0.0 1022444
15:00+16ююв3460100 0.0 1022694
18:00+15ю1169100 0.0 102123
21:00+13ю2380100 0.2 102145
14 апреля, ср
ср1400:00+11юв228520 0.3 102017
03:00+9юв348556 0.3 102053
06:00+8юв3683100 0.0 1019101
09:00+11ююв4107796 0.0 1019404
12:00+14ю477097 0.0 1018602
15:00+15ю4764100 0.6 1018991
18:00+14ююз2475100 0.8 1017145
21:00+12всв1181100 0.9 101711
15 апреля, чт
чт1500:00+11с2288100 0.7 101723
03:00+9ю0193100 1.4 101714
06:00+9в239095 0.1 101758
09:00+11юв127885 0.1 1017346
12:00+13в2369100 0.5 1017569
15:00+15вюв346199 1.6 10171095
18:00+11св6108599 1.0 1017444
21:00+9св71385100 1.1 1020578